www.pogodaiklimat.ru

Погода и климат >> Архив погоды >> Мозамбик >> Beira


ПОГОДА в Beira

  • Прогноз погоды в Beira
  • Монитор погоды в Beira
  • Климат города

АРХИВ ПОГОДЫ в Beira

Время (UTC), дата Ветер
(напр.,м/с)
 
Видим.   Явления Облачность Т
(С)
Тd
(С)
f
(%)
Тe
(С)
Тes
(С)
Комфортность P
(гПа)
Po
(гПа)
Тmin
(С)
Tmax
(С)
R
(мм)
S
(см)
12 17.02 З 3 9000 м в посл. час морось 8/5 300 м
[Cb cap Ac As]
+27.6 +24.0 81 +38 +42 очень
душно
1012.1 1012.0 2
15 17.02 ЮВ 1 15 км 6/5 300 м
[Cb cap Ci fib]
+26.7 +23.2 81 +36 +37 очень
душно
1011.8 1012.0
18 17.02 0 15 км 8/8 300 м
[Cb cap]
+28.6 +26.5 88 1013.4 1013.0 10
21 17.02 СВ 8 8000 м зарница {морось} 9/9 300 м
[Cb cap]
+26.4 +24.5 89 +37 +37 очень
душно
1015.9 1016.0
00 18.02 ЮЗ 2 15 км {дождь} 5/5 300 м
[Cu Sc]
+24.8 +23.8 94 +34 +34 очень
душно
1013.7 1014.0 16
03 18.02 З 2 15 км 4/4 600 м
[Cu med, cong]
+26.8 +23.9 84 +37 +37 очень
душно
1014.9 1015.0
06 18.02 З 3 15 км 6/6 300 м
[Cu Sc]
+26.4 +25.7 96 +39 +42 очень
душно
1015.4 1015.0 +23.6 27
09 18.02 Ю 3 20 км 8/8 300 м
[Cu Sc]
+30.2 +27.2 84 +48 +52 опасность
перегрева
1014.6 1015.0
12 18.02 С 5 25 км 6/6 300 м
[Cb calv]
+31.2 +27.0 78 +49 +52 опасность
перегрева
1013.0 1013.0 2
15 18.02 СВ 5 25 км 4/4 300 м
[Cb cap]
+28.6 +25.0 81 +41 +42 опасность
перегрева
1011.4 1011.0
18 18.02 СВ 5 25 км 4/3 300 м
[Cb cap Ci fib]
+28.0 +25.3 85 +41 +41 опасность
перегрева
1012.9 1013.0 +31.2 2
03 19.02 З 3 15 км 1/1 300 м
[Cu med, cong]
+27.0 +24.2 85 +38 +38 очень
душно
1013.0 1013.0
06 19.02 ЮЗ 2 25 км 3/3 600 м
[Cb cap]
+27.6 +25.3 87 +40 +46 очень
душно
1013.4 1013.0 +22.5 2
09 19.02 Ю 6 25 км 4/4 600 м
[Cu med, cong]
+30.2 +25.9 78 +45 +51 опасность
перегрева
1012.9 1013.0
12 19.02 ЮВ 5 25 км 3/3 600 м
[Cu med, cong]
+31.2 +24.3 67 +43 +50 опасность
перегрева
1011.4 1011.0
00 20.02 штиль 0 15 км 3/3 600 м
[Cu med, cong]
+27.4 +21.8 72
03 20.02 Ю 13 15 км 4/4 300 м
[Cu med, cong]
+26.4 +23.3 83 +36 +36 очень
душно
1010.5 1011.0
06 20.02 ЮЗ 3 20 км 4/4 300 м
[Cu med, cong]
+26.4 +24.5 89 +37 +41 очень
душно
1012.1 1012.0 +26.2
09 20.02 Ю 1 15 км в посл. час морось 6/6 300 м
[Cu med, cong]
+27.0 +24.3 85 +38 +48 очень
душно
1011.5 1012.0
12 20.02 СВ 4 20 км {морось} 4/4 300 м
[Cu med, cong Ac trans]
+29.4 +24.9 77 +42 +48 опасность
перегрева
1009.0 1009.0 0.7
15 20.02 С 7 20 км 3/3 300 м
[Cu med, cong]
+28.6 +25.0 81 +41 +41 опасность
перегрева
1008.5 1009.0
18 20.02 С 4 20 км 1/1 300 м
[Cu med, cong]
+27.8 +24.0 80 +39 +39 очень
душно
1009.6 1010.0 +30.5 0.7
21 20.02 С 2 20 км 4/4 300 м
[Cu med, cong]
+27.6 +24.0 81 +38 +38 очень
душно
1010.7 1011.0
00 21.02 штиль 0 20 км 3/3 300 м
[Cu med, cong]
+26.8 +24.3 86 +37 +37 очень
душно
1010.0 1010.0
03 21.02 СЗ 2 20 км 4/4 300 м
[Cu med, cong]
+26.0 +24.7 93 +37 +37 очень
душно
1009.0 1009.0
06 21.02 З 3 25 км {ливн. осадки} 3/3 300 м
[Cu med, cong]
+27.2 +24.3 84 +38 +43 очень
душно
1010.6 1011.0 +24.5 0.8
09 21.02 0 25 км 4/4 300 м
[Cu med, cong]
+29.8 +24.6 74 1009.8 1010.0
18 21.02 С 3 25 км 3/1 300 м
[Cu Sc Ci fib]
+27.0 +22.4 76 +35 +35 очень
душно
1008.3 1008.0 +31.6
03 22.02 С 2 20 км 9/5 300 м
[Cu Sc Ac As]
+25.6 +23.3 87 +34 +34 очень
душно
1009.5 1010.0
09 22.02 СВ 2 20 км 4/4 300 м
[Cu Sc]
+29.4 +23.6 71 +40 +53 опасность
солнечного
удара
1009.5 1010.0
12 22.02 З 4 20 км 4/4 300 м
[Cb cap Ac trans]
+31.6 +22.7 59 +41 +48 опасность
перегрева
1007.8 1008.0
15 22.02 С 6 20 км 3/3 300 м
[Cb cap]
+31.2 +22.0 58 +40 +40 очень
душно
1006.7 1007.0
18 22.02 С 4 20 км 3/3 300 м
[Cu med, cong]
+28.6 +23.7 75 +39 +39 очень
душно
1008.5 1009.0 +32.0
21 22.02 В 2 20 км 1/1 600 м
[Cu med, cong]
+27.6 +24.2 82 +39 +39 очень
душно
1010.1 1010.0
00 23.02 С 2 20 км 1/1 600 м
[Cu med, cong]
+26.8 +24.3 86 +37 +37 очень
душно
1009.1 1009.0
03 23.02 С 2 20 км 4/4 300 м
[Cu med, cong]
+26.4 +24.5 89 +37 +37 очень
душно
1009.7 1010.0
06 23.02 С 3 25 км 6/6 300 м
[Cu Sc Ci fib]
+28.6 +25.1 81 +41 +44 опасность
перегрева
1010.6 1011.0 +26.0
09 23.02 С 4 25 км 6/6 300 м
[Cb cap Ac trans Ci fib]
+30.0 +25.9 79 +45 +51 опасность
перегрева
1010.7 1011.0
15 23.02 С 4 25 км 4/3 600 м
[Cu Sc Ci sp]
+30.1 +24.7 73 +43 +43 опасность
перегрева
1007.9 1008.0
18 23.02 С 4 25 км 3/3 600 м
[Cb cap Ci fib]
+28.4 +24.0 77 +39 +39 очень
душно
1009.9 1010.0 +32.0
21 23.02 С 3 25 км 1/1 600 м
[Cu med, cong]
+27.6 +24.1 81 +38 +38 очень
душно
1011.7 1012.0
03 24.02 СЗ 1 15 км 3/3 300 м
[Cu med, cong]
+26.9 +24.3 86 +38 +38 очень
душно
1010.5 1011.0

 

Местоположение метеостанции Beira (Мозамбик): широта -19.80 долгота 34.90 высота над уровнем моря 16 м.

В архиве по умолчанию представлена погода в Beira за последнюю неделю. Архивные данные за месяц целиком и за предыдущие месяцы, начиная с января 2011 года, Вы можете получить, выбрав интересующий диапазон дат из раскрывающегося списка и нажав кнопку "Ввод!".

Внимание! Время в таблицах - всемирное. Для получения местного времени необходимо прибавить поправку, которая в Beira равна 2 ч.

Смотрите также архив погоды в соседних городах и на ближайших метеорологических станциях:

Погода в Chimoio (Мозамбик) (168 км)
Погода в Caia (Мозамбик) (224 км)
Погода в Chipinge (Зимбабве) (243 км)
Погода в Mukandi (Зимбабве) (246 км)
Погода в Vilanculos (Мозамбик) (249 км)
Погода в Catandica (Мозамбик) (265 км)
Погода в Massangena (Мозамбик) (280 км)
Погода в Wyanga (Зимбабве) (282 км)
Погода в Quelimane (Мозамбик) (298 км)
Погода в Rusape (Зимбабве) (323 км)

Пояснения к столбцам:

Ветер - указаны скорость ветра в м/с - средняя за 10 мин, порывы в срок и между сроками (в фигурных скобках) и направление, откуда дует ветер: С - северный, СВ - северо-восточный, В - восточный, ЮВ - юго-восточный, Ю - южный, ЮЗ - юго-западный, З - западный, СЗ - северо-западный.
Видимость - горизонтальная дальность видимости в метрах или километрах. При видимости от 1 до 10 км при отсутствии осадков обычно наблюдается дымка, при ухудшении видимости до 1 км и менее - туман. В сухую погоду видимость может ухудшаться дымом, пылью или мглою.
Явления - указаны атмосферные явления, наблюдавшиеся в срок или в последний час перед сроком; фигурными скобками обозначены явления, наблюдавшиеся между сроками (за 1-3 часа до срока); квадратными скобками обозначены град или гололедные отложения с указанием их диаметра в мм.
Облачность - указаны через наклонную черту общая и нижняя облачность в баллах и высота нижней границы облаков в метрах; квадратными скобками обозначены формы облаков: Ci - перистые, Cs - перисто-слоистые, Cc - перисто-кучевые, Ac - высококучевые, As - высокослоистые, Sc - слоисто-кучевые, Ns - слоисто-дождевые, Cu - кучевые, Cb - кучево-дождевые. Подробнее классификацию облаков см. в Атласе облаков (PDF).
T - Температура воздуха - температура, измеренная на высоте 2 м над землей.
Td - Температура точки росы - температура, при понижении до которой содержащийся в воздухе водяной пар достигнет насыщения.
f - Относительная влажность воздуха - влажноcть воздуха, измеренная на высоте 2 м над землей.
Te - Эффективная температура - температура, которую ощущает одетый по сезону человек в тени. Характеристика душности погоды. При расчете учитывается влияние влажности воздуха и скорости ветра на теплоощущения человека.
Tes - Эффективная температура на солнце - температура, которую ощущает человек, с поправкой на солнечный нагрев. Характеристика знойности погоды. Зависит от высоты солнца над горизонтом, облачности и скорости ветра. Ночью, в пасмурную погоду, а также при ветре 12 м/с и более поправка равна нулю.
P - Атмосферное давление - приведенное к уровню моря атмосферное давление.
Po - Атмосферное давление - измеренное на уровне метеостанции атмосферное давление.
Tmin - Минимальная температура - минимум температуры воздуха на высоте 2 м над землей.
Tmax - Максимальная температура - максимум температуры воздуха на высоте 2 м над землей.
R - Количество осадков - Количество выпавших осадков, мм. При наведении курсора мыши на число - период времени, за который выпало указанное количество осадков.
S - Снежный покров - Высота снежного покрова, см. При наведении курсора мыши на число - состояние снежного покрова и степень покрытия местности в баллах.